Lapse_Rate
7.3 7.2 7.2 7.2 7.1 7.1 7.0 7.0 6.9 6.7 6.5 6.3 6.2 6.1 6.0 5.9 5.8 5.7 5.7 5.6 5.6 5.6 5.6 5.6 5.6 5.5 5.5 5.4 5.4 5.3 5.3 5.2 5.0 5.0 5.0 5.0 5.1 5.2 5.3 5.2 5.2 5.2 5.2
7.3 7.3 7.2 7.1 7.1 7.0 6.8 6.8 6.6 6.4 6.2 6.0 5.9 5.9 5.8 5.6 5.5 5.4 5.3 5.4 5.4 5.4 5.3 5.3 5.3 5.3 5.3 5.3 5.4 5.3 5.2 5.1 4.9 4.8 4.9 4.9 4.9 4.8 4.9 4.9 5.0 5.1 5.1
7.2 7.3 7.4 7.5 7.4 7.1 7.0 6.8 6.4 6.2 6.1 6.1 6.1 6.0 5.7 5.4 5.2 5.2 5.2 5.1 5.1 5.1 5.1 5.0 5.1 5.1 5.1 5.1 5.1 5.1 5.1 5.0 4.9 4.8 4.8 4.6 4.6 4.6 4.7 4.7 4.8 4.9 5.0
7.7 7.6 7.6 7.3 7.2 7.0 6.7 6.5 6.3 6.3 6.3 6.1 5.4 5.0 4.8 4.8 4.9 4.9 4.9 4.9 5.0 5.0 5.0 5.0 4.9 4.9 4.9 4.8 4.8 4.7 4.6 4.5 4.6 4.6 4.5 4.4 4.4 4.5 4.5 4.5 4.6 4.8 4.9
7.4 7.3 7.1 6.9 6.8 6.6 6.5 6.3 6.0 5.7 5.5 5.2 5.0 5.0 5.0 4.8 4.7 4.7 4.7 4.7 4.7 4.7 4.7 4.6 4.6 4.5 4.5 4.5 4.4 4.3 4.2 4.2 4.1 4.1 4.1 4.1 4.1 4.2 4.2 4.6 4.7 4.5 4.4
7.3 7.1 7.0 6.4 6.2 6.3 6.2 5.8 5.7 5.9 6.0 5.6 5.3 5.2 5.0 4.7 4.6 4.6 4.6 4.5 4.5 4.4 4.4 4.4 4.4 4.3 4.2 4.1 4.0 4.0 4.0 3.9 4.0 4.0 4.1 4.1 4.1 4.1 4.1 4.3 4.7 5.1 5.2
7.9 7.8 7.6 7.4 7.1 6.8 6.7 6.5 6.3 6.0 5.7 5.4 5.2 5.1 5.0 4.9 4.7 4.6 4.5 4.4 4.3 4.2 4.1 4.1 4.1 4.1 4.1 4.0 4.0 4.0 4.1 4.0 4.0 4.1 4.1 4.1 4.2 4.2 4.2 4.2 4.3 4.6 5.0
7.5 7.4 7.1 6.7 6.5 6.0 5.9 5.8 5.7 5.6 5.6 5.4 5.2 5.1 4.8 4.6 4.6 4.5 4.2 4.0 3.9 3.9 3.9 3.9 3.9 3.9 3.9 3.9 3.9 3.9 3.9 4.0 4.0 4.0 4.0 3.9 3.9 4.0 4.1 4.2 4.2 4.5 4.5
7.7 7.6 7.0 6.8 6.5 6.2 5.9 5.7 5.6 5.5 5.4 5.3 5.1 4.9 4.8 4.8 4.6 4.3 4.2 4.1 4.0 3.9 3.8 3.7 3.7 3.8 3.9 3.8 3.7 3.8 3.7 3.8 3.8 3.9 3.9 3.9 3.8 3.8 3.8 3.8 3.9 4.0 4.4
7.2 7.1 6.7 6.5 6.4 6.0 6.0 5.8 5.7 5.5 5.1 5.0 4.9 4.8 4.7 4.5 4.4 4.2 4.1 4.0 3.9 3.8 3.7 3.6 3.7 3.7 3.6 3.6 3.6 3.6 3.6 3.6 3.6 3.6 3.7 3.8 3.8 3.7 3.8 3.8 3.9 3.9 4.0
6.4 6.3 6.2 6.2 6.1 6.1 6.1 5.9 5.7 5.5 5.2 5.0 4.9 4.8 4.6 4.4 4.2 4.1 4.0 3.8 3.6 3.3 3.2 3.1 3.1 3.2 3.2 3.2 3.1 3.2 3.2 3.2 3.3 3.4 3.6 3.7 3.6 3.7 3.7 3.7 3.7 3.6 3.5
6.1 6.0 5.9 6.0 5.9 5.7 5.6 5.4 5.1 4.8 4.7 4.6 4.4 4.3 4.2 4.0 3.8 3.6 3.5 3.3 3.1 3.0 2.9 2.8 2.8 2.9 2.9 3.0 2.9 2.9 2.9 3.0 3.1 3.3 3.5 3.6 3.6 3.6 3.5 3.4 3.3 3.1 3.1
5.1 5.1 4.9 4.7 4.8 4.9 4.6 4.4 4.2 4.3 4.3 4.2 4.1 3.8 3.6 3.5 3.4 3.3 3.2 3.1 3.1 3.0 2.9 2.8 2.7 2.7 2.7 2.7 2.7 2.7 2.8 2.8 2.9 3.1 3.4 3.4 3.3 3.3 3.1 2.9 2.9 2.8 2.7
4.1 4.0 3.8 3.8 3.7 3.8 3.7 3.6 3.7 3.7 3.6 3.7 3.5 3.3 3.3 3.2 3.0 2.8 2.9 2.9 2.8 2.8 2.6 2.6 2.5 2.5 2.5 2.5 2.6 2.6 2.7 2.8 3.0 3.2 3.3 3.3 3.2 3.0 2.8 2.6 2.5 2.3 2.2
3.3 3.2 3.1 3.2 3.2 3.3 3.2 3.2 3.1 3.2 3.3 3.3 3.3 3.1 2.9 2.6 2.5 2.5 2.6 2.6 2.6 2.6 2.5 2.4 2.4 2.4 2.4 2.6 2.7 2.8 2.9 3.0 3.2 3.4 3.4 3.3 3.0 2.8 2.8 2.6 2.4 2.2 2.2
2.7 2.6 2.6 2.6 2.5 2.4 2.4 2.6 2.7 3.0 3.2 3.1 2.9 2.7 2.6 2.6 2.5 2.5 2.4 2.5 2.4 2.4 2.4 2.5 2.6 2.8 2.9 3.0 3.1 3.1 3.3 3.4 3.4 3.4 3.2 2.9 2.8 2.8 2.6 2.5 2.3 2.1 2.4
1.6 1.6 1.6 1.6 1.8 2.0 2.1 2.2 2.4 2.5 2.4 2.4 2.3 2.3 2.3 2.4 2.5 2.5 2.5 2.5 2.5 2.6 2.8 2.9 3.0 3.2 3.2 3.3 3.4 3.3 3.2 3.1 3.1 3.1 3.1 3.0 2.9 2.8 2.8 2.8 2.9 3.1 3.2
1.4 1.5 1.6 1.7 1.8 1.9 2.0 2.0 2.1 2.1 2.1 2.2 2.3 2.3 2.4 2.5 2.6 2.6 2.6 2.8 2.8 2.9 3.0 3.1 3.3 3.3 3.4 3.5 3.4 3.2 3.0 2.9 2.8 2.6 2.7 2.9 3.2 3.3 3.4 3.7 4.0 4.4 4.5
2.0 2.0 2.1 2.1 2.2 2.3 2.4 2.4 2.5 2.4 2.5 2.6 2.7 2.8 2.8 2.8 3.0 3.2 3.3 3.2 3.3 3.2 3.3 3.6 3.6 3.6 3.4 3.4 3.2 3.1 3.0 3.0 3.1 3.3 3.5 3.7 4.0 4.4 4.7 4.9 5.3 5.6 5.6
1.7 1.9 2.2 2.4 2.6 2.7 2.7 2.8 3.0 3.0 3.0 3.1 3.2 3.3 3.2 3.2 3.4 3.5 3.5 3.5 3.6 3.6 3.5 3.5 3.6 3.6 3.7 3.8 3.8 3.7 3.7 3.8 4.1 4.3 4.6 4.8 5.0 5.4 5.5 5.5 5.6 6.0 6.0
2.0 2.0 2.0 2.1 2.3 2.3 2.5 2.7 2.8 2.9 2.9 2.9 3.0 3.3 3.5 3.5 3.5 3.6 3.7 3.7 3.8 3.8 3.9 4.0 4.1 4.2 4.4 4.5 4.5 4.4 4.5 4.8 5.0 5.2 5.4 5.6 5.7 5.8 5.7 5.5 5.4 5.6 5.4
2.0 2.0 2.0 2.0 2.0 2.0 2.0 2.2 2.5 2.6 2.7 2.8 3.0 3.0 2.8 2.7 3.0 3.3 3.6 3.9 4.0 4.2 4.4 4.6 4.8 5.0 5.0 5.1 5.1 5.2 5.2 5.3 5.5 5.8 5.8 5.9 5.9 6.0 5.9 5.6 5.3 5.1 4.8
2.0 2.0 2.1 2.2 2.1 2.1 2.2 2.3 2.2 2.0 1.9 2.0 2.4 2.7 3.0 3.0 2.8 3.0 3.6 4.0 4.2 4.4 4.7 4.8 5.0 5.3 5.3 5.4 5.5 5.5 5.6 5.7 5.7 5.7 5.9 5.9 6.0 5.8 5.6 5.2 5.0 4.5 4.2
2.4 2.5 2.5 2.4 2.3 2.4 2.3 2.3 2.3 2.2 2.0 1.9 2.0 2.1 2.4 2.8 3.1 3.2 3.4 3.7 4.2 4.5 4.6 4.8 5.0 5.2 5.4 5.5 5.5 5.4 5.4 5.5 5.6 5.8 5.9 5.6 5.2 5.1 5.2 5.1 5.0 5.0 5.1
3.4 3.4 3.3 3.2 3.2 3.1 3.1 3.0 2.8 2.7 2.6 2.5 2.5 2.4 2.5 2.8 3.0 3.3 3.7 3.8 4.0 4.1 4.3 4.7 4.8 5.0 5.2 5.3 5.2 5.4 5.5 5.6 5.5 5.4 5.4 5.4 5.3 5.2 5.1 5.1 5.0 4.9 4.9
3.9 3.9 3.8 3.7 3.7 3.7 3.7 3.8 3.5 3.1 2.8 2.9 3.0 2.8 2.7 2.9 3.2 3.6 3.8 4.0 4.1 4.3 4.2 4.3 4.5 4.9 4.7 4.9 4.9 5.1 5.3 5.4 5.5 5.3 5.3 5.2 5.0 5.0 4.8 4.8 4.8 4.8 4.6
Wind_Speed
11 13 13 12 11 10 9 9 10 8 8 8 7 6 5 4 6 15 18 19 20 20 19 16 16 15 10 6 9 3 6 8 5 3 4 3 5 5 8 13 14 14 17
16 16 15 11 13 11 10 9 10 9 6 5 3 4 6 3 8 12 16 17 18 18 17 16 13 14 9 8 6 5 2 4 5 3 2 3 3 4 4 9 8 10 15
21 19 17 14 12 12 12 11 10 7 6 7 9 7 9 7 3 3 5 13 17 18 18 17 16 14 11 4 5 5 5 3 4 6 3 3 1 3 2 2 4 7 8
18 19 18 16 14 11 9 10 8 7 9 12 10 12 7 8 3 3 5 10 15 15 16 15 15 13 12 6 6 9 4 3 4 2 4 4 2 1 3 3 2 5 5
21 21 19 18 14 11 10 10 9 7 7 8 9 7 7 5 6 5 7 6 11 13 13 13 13 12 11 10 9 6 5 3 2 2 2 3 1 1 2 3 3 3 4
18 18 17 17 14 11 10 9 9 5 7 6 7 8 11 10 8 6 5 4 4 9 10 11 11 10 10 7 6 5 5 3 2 1 1 1 1 0 1 1 3 4 4
18 18 18 15 14 13 11 9 8 6 6 7 7 8 9 9 9 7 4 5 4 3 5 9 8 8 7 5 4 3 2 1 1 2 1 1 2 1 2 2 3 3 2
16 17 16 14 15 13 11 9 8 7 7 7 7 6 7 5 4 5 4 4 3 4 8 9 7 6 5 4 2 1 1 2 1 3 2 2 3 2 2 2 2 6 4
13 14 13 13 13 12 10 10 8 6 7 7 6 6 7 7 7 7 7 4 9 9 10 8 6 4 4 3 2 2 2 2 3 3 3 2 3 3 3 3 3 4 7
8 9 8 12 8 9 7 8 8 8 6 7 6 6 6 6 5 6 6 6 7 8 7 5 4 3 2 2 2 2 4 3 3 4 4 3 2 4 5 3 3 3 5
9 7 7 6 7 7 8 8 8 9 7 6 5 6 5 5 5 5 4 6 7 8 6 5 5 4 4 4 3 4 5 5 5 5 5 5 6 3 3 3 3 5 4
11 11 10 9 8 7 7 7 6 7 6 5 6 5 5 5 5 4 5 7 6 7 7 6 6 5 6 7 5 5 5 5 5 5 5 5 5 5 4 3 5 5 5
11 10 11 9 8 7 6 6 5 5 4 5 5 5 5 5 5 5 5 7 7 7 7 7 5 5 6 6 7 6 5 5 5 5 6 6 5 6 5 5 5 5 7
9 8 7 6 6 6 6 5 5 4 3 4 3 4 4 4 4 4 4 5 7 5 6 7 7 8 8 9 8 8 6 5 7 8 9 7 7 8 7 8 8 8 8
9 7 6 5 5 5 4 4 4 3 2 2 1 3 4 4 4 4 4 5 5 6 8 6 8 9 9 10 7 9 8 9 9 9 13 14 15 20 18 9 10 10 8
13 12 10 8 5 3 2 3 4 4 1 3 5 4 5 5 6 5 5 5 6 7 6 7 8 8 8 19 21 19 10 13 12 11 10 14 19 19 24 26 28 21 10
6 7 5 2 3 5 6 5 5 4 5 7 7 7 7 8 8 8 7 8 8 7 7 8 8 10 10 23 24 24 12 10 11 11 11 10 14 19 13 17 24 25 28
10 10 8 6 4 4 4 5 4 4 5 7 8 8 8 9 9 9 10 10 8 9 9 10 11 11 11 24 25 26 15 11 11 11 11 11 11 13 13 14 14 15 13
9 8 8 9 7 6 7 7 5 5 6 8 9 9 9 10 9 10 11 10 9 9 9 11 12 13 12 24 25 21 13 12 11 10 12 10 12 18 24 16 15 15 13
5 8 8 7 6 8 8 8 8 6 7 9 10 8 8 9 10 11 11 9 10 11 9 13 12 17 14 22 25 21 10 12 10 11 12 23 18 24 25 16 14 14 13
9 9 7 7 7 8 8 9 10 9 11 10 8 7 7 9 10 10 8 8 9 10 10 12 11 11 12 12 24 25 13 10 9 9 9 9 21 24 25 25 14 15 15
12 12 10 9 8 6 6 9 10 11 10 9 10 10 8 7 7 7 7 7 7 9 9 9 9 9 11 20 21 25 25 22 13 12 10 11 23 25 26 22 24 27 25
11 10 10 12 12 8 5 8 8 8 9 10 11 11 9 8 7 6 8 6 5 8 8 7 8 8 8 8 21 24 25 27 17 12 16 26 27 28 25 21 20 23 11
11 12 11 13 12 9 9 7 9 8 7 9 10 9 8 8 7 7 7 7 7 8 8 8 8 7 7 8 8 10 10 18 16 15 10 13 17 21 20 16 12 7 7
10 10 12 11 13 12 13 12 14 11 11 10 8 7 8 9 8 8 8 8 10 10 8 9 8 8 8 11 17 13 9 9 13 13 8 7 8 8 8 8 9 8 8
8 11 12 12 12 13 12 13 12 12 11 10 9 8 7 6 7 7 8 21 23 25 27 27 19 12 25 26 23 23 24 24 27 11 10 10 9 10 10 9 9 9 12
Wind_Direction
161 149 144 143 137 139 137 135 134 136 131 129 125 117 120 107 88 95 96 97 100 97 93 88 84 78 75 68 53 68 52 32 6 57 35 30 49 69 77 86 73 72 62
161 158 154 149 153 150 146 144 147 147 141 136 121 115 128 96 103 103 94 100 100 98 92 90 84 82 79 63 54 51 60 45 20 86 75 38 342 22 47 59 67 57 51
165 164 161 157 152 155 153 153 156 156 148 129 119 111 103 99 88 84 89 95 100 99 99 97 93 89 87 82 72 62 66 75 26 43 106 69 38 329 342 40 47 44 44
167 162 160 158 157 155 145 150 142 136 136 141 140 146 145 145 142 126 120 108 109 105 106 105 102 99 93 82 80 69 67 87 65 19 39 70 127 94 329 330 23 15 30
165 163 161 157 155 149 148 150 146 145 139 136 143 139 135 120 131 126 122 118 112 110 108 106 100 92 87 81 77 63 57 57 84 73 29 28 20 137 188 289 318 352 349
157 153 152 153 150 141 141 138 135 139 139 146 141 141 142 141 140 140 135 133 123 114 108 108 102 101 96 87 81 74 69 74 77 53 49 139 198 285 73 288 306 293 288
150 149 150 148 145 142 136 136 139 140 138 136 142 143 144 139 142 148 146 145 137 125 129 125 115 115 116 115 112 95 73 66 145 176 231 232 228 205 213 219 263 262 302
146 150 147 141 143 146 146 139 141 136 128 117 114 119 128 130 128 139 138 141 138 138 134 124 120 119 130 132 127 123 177 244 266 247 233 248 260 255 238 243 266 291 271
135 141 143 143 147 148 148 145 139 126 122 116 111 105 107 116 123 116 114 119 125 132 123 127 131 139 146 155 174 204 241 272 271 264 262 246 260 260 266 259 239 260 287
107 124 120 136 137 141 133 128 128 128 126 116 110 108 108 111 113 113 117 121 124 119 130 138 154 173 186 201 230 262 269 267 268 257 255 267 260 271 269 256 256 243 265
49 55 77 88 103 105 117 123 121 124 122 118 117 115 111 110 112 122 134 143 143 150 159 175 187 203 219 231 234 245 255 253 258 266 261 263 269 267 267 266 259 265 259
50 49 50 65 70 81 95 108 109 116 122 124 123 130 135 139 145 159 166 168 168 176 184 196 211 222 230 231 232 236 257 247 251 258 263 256 269 260 254 251 256 253 251
52 50 51 51 54 55 59 72 82 99 113 126 136 141 155 165 182 195 198 191 184 193 204 207 214 220 227 231 239 238 241 242 242 246 256 258 248 260 255 248 254 261 268
73 68 54 47 44 50 50 47 58 70 81 105 123 170 192 197 205 215 216 211 204 201 211 221 227 230 233 239 240 250 246 246 257 251 250 244 243 250 249 258 258 257 256
64 62 59 52 43 33 17 8 5 15 25 101 205 230 242 249 242 233 228 226 215 220 225 228 232 234 239 246 242 248 251 251 248 246 249 251 250 257 251 243 242 248 248
36 36 37 39 35 25 330 304 292 283 272 254 251 246 243 244 245 244 232 228 233 234 232 235 236 233 239 248 255 253 229 236 237 238 235 245 258 269 274 276 277 265 228
7 355 342 207 214 219 222 229 229 223 226 238 248 247 249 249 244 239 233 233 237 240 240 242 241 245 241 252 258 259 258 249 236 237 242 245 252 262 263 273 278 281 282
341 331 319 296 272 255 260 254 234 234 234 237 241 242 243 246 245 236 237 239 237 237 240 245 245 247 245 252 257 259 259 254 248 241 239 241 247 248 256 258 258 259 259
315 311 306 295 291 285 277 267 256 239 242 249 249 250 247 242 241 241 240 241 241 239 242 249 249 247 246 252 257 260 261 259 255 251 245 241 245 249 261 264 262 265 266
289 299 294 281 277 275 273 272 269 249 245 250 249 245 240 240 246 247 248 241 241 247 250 255 248 246 248 248 255 256 255 254 254 251 249 254 256 251 253 254 257 262 265
318 306 308 291 278 276 272 271 269 264 256 260 252 241 227 234 239 246 239 238 238 252 253 254 253 254 252 252 255 258 258 256 257 254 252 249 255 263 267 269 265 263 262
324 319 313 306 292 262 258 260 261 260 261 258 257 253 244 241 248 226 241 228 231 242 247 251 255 252 251 256 257 258 258 256 253 249 250 251 257 263 266 267 266 269 270
317 320 316 310 304 290 265 276 271 256 252 245 245 245 244 240 232 227 243 239 227 238 248 244 249 250 247 248 257 262 261 259 259 256 254 256 254 256 259 269 278 277 272
316 323 323 322 321 317 302 276 288 284 260 254 245 241 234 243 234 236 236 235 235 236 239 241 245 248 247 248 247 250 259 271 275 283 287 279 272 268 272 279 282 281 275
313 326 314 313 313 315 308 300 295 293 289 283 267 243 235 243 252 224 228 233 235 228 237 238 236 236 239 237 237 237 242 241 244 249 251 255 258 257 257 258 260 259 259
312 312 305 302 302 298 308 302 304 288 278 281 279 270 262 252 239 238 248 258 262 247 248 246 224 231 235 244 247 247 251 247 235 234 233 234 236 239 242 245 253 253 259